User: anonymous   Login
Location: Fishcreek Rd Observing Site
(41.1865°N, 81.4271°W)
Time: 17:24:22
(UTC-04:00)
Language:

Iridium 45 - Orbit

View from above orbital plane
View from above orbital plane
View from above satellite
View from above satellite

Ground track
Ground track

The orbit data is extracted from the following two-line orbital elements,

1 25104U 97082A   15212.53976652  .00000026  00000-0  23858-5 0  9991
2 25104 086.3951 214.2395 0003425 062.9919 297.1627 14.34215387921950
Epoch (UTC): 31 July 2015 12:57:15
Eccentricity: 0.0003425
inclination: 86.3951°
perigee height: 775 km
apogee height: 780 km
right ascension of ascending node: 214.2395°
argument of perigee: 62.9919°
revolutions per day: 14.34215387
mean anomaly at epoch: 297.1627°
orbit number at epoch: 92195

The dashed part of the orbit path shows where the satellite is in the earth's shadow,  

DLR